Regional Weather Roundup
Issued by NWS

Home | Current Version | Previous Version | Graphics & Text | Print | Product List | Glossary On
Versions: 1 2 3 4 5 6 7 8 9 10 11 12 13 14 15 16 17 18 19 20 21 22 23 24 25 26 27 28 29 30 31 32 33 34 35 36 37 38 39 40 41 42 43 44 45 46 47 48 49 50
402
ASUS45 KCYS 191110
RWRWY

WYOMING REGIONAL WEATHER ROUNDUP
NATIONAL WEATHER SERVICE CHEYENNE WY
500 AM MDT SAT AUG 19 2017

NOTE:  "FAIR" INDICATES FEW OR NO CLOUDS BELOW 12,000 FEET
WITH NO SIGNIFICANT WEATHER AND/OR OBSTRUCTIONS TO VISIBILITY.

WYZ001-191200-
YELLOWSTONE NATIONAL PARK

CITY           SKY/WX    TMP DP  RH WIND       PRES   REMARKS
LK YELLOWSTONE   N/A     37  35  92 CALM      30.28F
W YELLOWSTONE  NOT AVBL

$$
WYZ002>013-054>058-071-098>099-191200-
NORTHERN WYOMING

CITY           SKY/WX    TMP DP  RH WIND       PRES   REMARKS
JACKSON        FAIR      39  31  72 N6        30.22F WCI  35
CODY           FAIR      72  30  21 VRB7      30.03S
GREYBULL       FAIR      56  41  57 CALM      29.95R
WORLAND        FAIR      51  39  63 E3        29.97S
SHERIDAN       FAIR      54  41  61 CALM      29.91F
BUFFALO        FAIR      64  32  30 SW7       30.00R
GILLETTE       FAIR      66  39  37 SW8       29.95R
HULETT         FAIR      64  41  42 W7        29.95S
NEWCASTLE      FAIR      59  39  47 NW5       29.97S

$$
WYZ014>020-022>026-101>103-191200-
CENTRAL WYOMING

CITY           SKY/WX    TMP DP  RH WIND       PRES   REMARKS
BIG PINEY      FAIR      41  30  65 CALM      30.25S
PINEDALE       FAIR      36  32  87 W6        30.26S WCI  31
DUBOIS         FAIR      46  28  49 NW10      30.22S
LANDER           N/A    N/A N/A N/A MISG      30.07S
RIVERTON       FAIR      63  31  30 W15       30.07S
CASPER         FAIR      53  37  54 W9        30.05S
DOUGLAS        FAIR      51  46  83 NW5       30.03S

$$
WYZ021-027>030-104>119-191200-
SOUTHERN WYOMING

CITY           SKY/WX    TMP DP  RH WIND       PRES   REMARKS
EVANSTON       FAIR      53  31  42 SW9       30.27S
KEMMERER         N/A     45  32  61 N3        30.26F
FORT BRIDGER   FAIR      61  25  26 SW9       30.28F
ROCK SPRINGS   FAIR      57  29  34 SW12      30.22F
RAWLINS        FAIR      59  29  31 NW3       30.20S
SARATOGA       FAIR      50  34  53 S12       30.24S
LARAMIE        FAIR      48  35  60 S8        30.22F
CHEYENNE       FAIR      56  42  59 W10       30.14F
TORRINGTON     FAIR      61  48  62 SE8       29.97F
PINE BLUFFS    FAIR      55  50  82 SW7       30.10R

$$




USA.gov is the U.S. government's official web portal to all federal, state and local government web resources and services.